This demonstration page uses our WeatherBlox Daily Observations layout. Learn more.

Left ArrowRight Arrow

Hourly Observations for March 16, 2018

Temp ( °F °C ) Dew Point ( °F °C ) Humidity (%) Winds ( mph kmh ) Pressure ( in mb ) Visibility ( mi km ) Precip ( " mm )
12:08 am 00:08 Cloudy 42 5.6 41 5 96 96 NNW 5 7 29.85 1011 10 16 0.00 0.00
12:50 am 00:50 Cloudy 43 6 41 5 93 93 WNW 5 7 29.83 1010 10 16 0.00 0.00
12:53 am 00:53 Cloudy 42 5.6 41 5 96 96 WNW 5 7 29.81 1009 10 16 0.00 0.00
1:01 am 01:01 Cloudy 42 5.6 41 5 96 96 Calm 29.83 1010 9 14 0.00 0.00
1:12 am 01:12 Cloudy 42 5.6 41 5 96 96 Calm 29.83 1010 7 11 0.00 0.00
1:42 am 01:42 Cloudy 42 5.6 41 5 96 96 W 3 6 29.83 1010 8 13 0.00 0.00
1:49 am 01:49 Cloudy 43 6 41 5 93 93 Calm 29.83 1010 8 13 0.00 0.00
1:53 am 01:53 Cloudy 42 5.6 41 5 96 96 Calm 29.81 1009 9 14 0.00 0.00
2:02 am 02:02 Cloudy 43 6.1 41 5 93 93 Calm 29.83 1010 10 16 0.00 0.00
2:42 am 02:42 Mostly Cloudy 42 5.6 41 5 96 96 Calm 29.83 1010 8 13 0.00 0.00
2:53 am 02:53 Cloudy 41 5 41 5 100 100 NW 3 6 29.80 1009 7 11 0.00 0.00
3:41 am 03:41 Cloudy 42 5.6 41 5 96 96 WNW 5 7 29.83 1010 10 16 0.00 0.00
3:53 am 03:53 Cloudy 42 5.6 41 5 96 96 WNW 3 6 29.79 1009 10 16 0.00 0.00
4:53 am 04:53 Cloudy 43 6.1 41 5 93 93 Calm 29.79 1009 10 16 0.00 0.00
5:53 am 05:53 Cloudy 42 5.6 40 4.4 92 92 NNW 3 6 29.80 1009 10 16 0.00 0.00
6:53 am 06:53 Cloudy 43 6.1 40 4.4 89 89 Calm 29.80 1009 10 16 0.00 0.00
7:08 am 07:08 Cloudy 43 6.1 40 4.4 89 89 Calm 29.83 1010 10 16 0.00 0.00
7:44 am 07:44 Cloudy 42 5.6 41 5 96 96 Calm 29.83 1010 10 16 0.00 0.00
7:53 am 07:53 Cloudy 42 5.6 41 5 96 96 Calm 29.80 1009 10 16 0.00 0.00
8:53 am 08:53 Cloudy with Light Rain 43 6.1 41 5 93 93 SE 3 6 29.81 1010 9 14 0.00 0.03
9:04 am 09:04 Cloudy with Light Rain 43 6.1 42 5.6 97 97 Calm 29.83 1010 8 13 0.00 0.03
9:51 am 09:51 Cloudy 45 7 43 6 93 93 VRB 3 6 29.85 1011 10 16 0.00 0.03
9:53 am 09:53 Cloudy 45 7.2 42 5.6 90 90 VRB 7 11 29.82 1010 10 16 0.00 0.03
10:22 am 10:22 Partly Cloudy 47 8.3 43 6.1 86 86 S 10 17 29.85 1011 10 16 0.00 0.00
10:53 am 10:53 Partly Cloudy 49 9.4 42 5.6 77 77 S 12 19 29.83 1010 10 16 0.00 0.00
11:31 am 11:31 Mostly Cloudy 50 10 41 5 71 71 SSW 10 17 29.85 1011 10 16 0.00 0.00
11:40 am 11:40 Partly Cloudy 50 10 41 5 71 71 SW 10 17 29.85 1011 10 16 0.00 0.00
11:53 am 11:53 Mostly Sunny 49 9.4 39 3.9 69 69 SW 6 9 29.81 1010 10 16 0.00 0.00
12:53 pm 12:53 Mostly Sunny 52 11.1 39 3.9 61 61 SSE 8 13 29.81 1009 10 16 0.00 0.00
1:53 pm 13:53 Mostly Cloudy 51 10.6 39 3.9 64 64 SSW 10 17 29.78 1009 10 16 0.00 0.00
2:53 pm 14:53 Mostly Sunny 55 12.8 36 2.2 49 49 SSE 12 19 29.76 1008 10 16 0.00 0.00
3:53 pm 15:53 Partly Cloudy 54 12.2 35 1.7 49 49 S 10 17 29.75 1007 10 16 0.00 0.00
4:22 pm 16:22 Cloudy with Nearby Thunderstorms 48 8.9 39 3.9 71 71 N 9 15 29.80 1009 7 11 0.04 1.02
4:40 pm 16:40 Cloudy with Light Rain 47 8.3 39 3.9 74 74 NNE 6 9 29.80 1009 10 16 0.05 1.27
4:53 pm 16:53 Cloudy 47 8.3 41 5 80 80 NNE 9 15 29.78 1008 10 16 0.05 1.27
5:53 pm 17:53 Partly Cloudy 49 9.4 40 4.4 71 71 NE 9 15 29.78 1008 10 16 0.00 0.03
6:53 pm 18:53 Cloudy with Light Rain 46 7.8 41 5 83 83 ENE 12 19 29.79 1009 10 16 0.02 0.51
7:53 pm 19:53 Cloudy 45 7.2 40 4.4 83 83 NNW 6 9 29.81 1010 10 16 0.00 0.03
8:53 pm 20:53 Mostly Cloudy 43 6.1 39 3.9 86 86 WNW 3 6 29.83 1010 10 16 0.00 0.00
9:53 pm 21:53 Mostly Clear 43 6.1 39 3.9 86 86 Calm 29.84 1011 10 16 0.00 0.00
10:53 pm 22:53 Mostly Cloudy 42 5.6 40 4.4 92 92 Calm 29.85 1011 10 16 0.00 0.00
11:53 pm 23:53 Clear 40 4.4 39 3.9 97 97 NNE 3 6 29.86 1011 10 16 0.00 0.00

Powered by AerisWeather